{"data":{"norad_id":68890,"epoch":"2026-09-19T12:26:01.035456Z","epoch_age_seconds":100280,"freshness":"FRESH","line1":"1 68890U 26095AC  26262.51806754  .00000928  00000+0  15068-3 0  9998","line2":"2 68890  51.9006 181.1069 0000582  65.8473 294.2551 14.79929827 21759","mean_motion":14.79929827,"eccentricity":5.82e-5,"inclination_deg":51.9006,"raan_deg":181.1069,"arg_perigee_deg":65.8473,"mean_anomaly_deg":294.2551,"bstar":0.00015068,"rev_number":2175,"period_min":97.301910788504,"perigee_km":629.13779843765,"apogee_km":629.95349269759,"semimajor_km":7007.6826455676,"source":"CELESTRAK","updated_at":"2026-09-20T09:00:24.542071Z"}}